Regional Weather Roundup
Issued by NWS

Home | Current Version | Previous Version | Text Only | Print | Product List | Glossary Off
Versions: 1 2 3 4 5 6 7 8 9 10 11 12 13 14 15 16 17 18 19 20 21 22 23 24 25 26 27 28 29 30 31 32 33 34 35 36 37 38 39 40 41 42 43 44 45 46 47 48 49 50

079
ASUS43 KDTX 211401
RWRMI
MICHIGAN HOURLY REGIONAL WEATHER ROUNDUP
NATIONAL WEATHER SERVICE DETROIT/PONTIAC MI
1000 AM EDT FRI JUL 21 2017

NOTE: "FAIR" INDICATES FEW OR NO CLOUDS BELOW 12,000 FEET WITH NO
SIGNIFICANT WEATHER AND/OR OBSTRUCTION TO VISIBILITY.

MIZ047>049-052>055-059>063-066>070-074>076-081>083-211500-
SOUTHEAST LOWER MICHIGAN

CITY           SKY/WX    TMP DP  RH WIND       PRES   REMARKS
ADRIAN         MOSUNNY   75  70  84 N3        30.01F
ALMA           MOSUNNY   75  65  73 CALM      30.02F
ANN ARBOR      CLOUDY    78  70  76 CALM      30.00F
BAD AXE        MOSUNNY   73  65  75 N5        30.00F
CARO           CLOUDY    75  64  68 CALM      30.00S
DETROIT CITY   PTSUNNY   79  66  64 NE7       30.00S
DETROIT        PTSUNNY   80  69  69 NE6       30.00S
FLINT          CLOUDY    77  65  66 NE7       30.01F
GROSSE ILE     CLOUDY    78  69  73 NE6       29.98F
HILLSDALE      CLOUDY    70  68  94 CALM      30.02F
HOWELL         CLOUDY    74  66  75 NE3       30.02S

CITY           SKY/WX    TMP DP  RH WIND       PRES   REMARKS
JACKSON        CLOUDY    71  67  87 CALM      30.03S
LAMBERTVILLE   MOSUNNY   78  71  80 CALM      29.99F
LANSING        CLOUDY    76  65  68 CALM      30.03S
LAPEER         FAIR      74  66  75 CALM      30.01F
MASON          CLOUDY    73  68  83 NE3       30.03S
MONROE         CLOUDY    76  71  85 CALM      29.99F
PONTIAC        CLOUDY    76  66  71 NE6       30.00F
PORT HOPE        N/A     73  63  70 NW5       29.98F
PORT HURON     CLOUDY    77  66  69 N6        30.00S
TRI CITIES     MOSUNNY   77  66  68 CALM      30.01F
MIDLAND        FAIR      75  65  69 CALM      30.00F
TROY           MOSUNNY   78  66  66 N5        30.02S
SAGINAW HB     MOSUNNY   73  64  73 CALM      30.00S
$$
MIZ043>046-050>051-056>058-064>065-071>073-077>080-211500-
SOUTHWEST LOWER MICHIGAN

CITY           SKY/WX    TMP DP  RH WIND       PRES   REMARKS
BATTLE CREEK   MOSUNNY   74  68  81 NE6       30.02F
BENTON HARBOR  PTSUNNY   74  70  87 E9        29.98F FOG
BIG RAPIDS     SUNNY     74  67  79 S7        29.99F
COLDWATER      PTSUNNY   70  70 100 CALM      30.03S
FREMONT        FAIR      72  72 100 CALM      29.98F
HOLLAND        PTSUNNY   73  69  87 SE5       30.01S FOG
GRAND RAPIDS   PTSUNNY   74  69  85 E5        30.00F
IONIA          FAIR      74  67  81 E5        30.01F
KALAMAZOO      PTSUNNY   77  66  68 CALM      30.02F
LUDINGTON      CLOUDY    75  71  87 CALM      29.96F
MARSHALL       PTSUNNY   71  71  98 CALM      30.02F
MOUNT PLEASANT SUNNY     78  64  63 CALM      30.00S
MUSKEGON       PTSUNNY   81  70  69 CALM      29.98F
SOUTH HAVEN    PTSUNNY   73  72  96 E5        30.00F
$$
MIZ016>042-211500-
NORTHERN LOWER MICHIGAN

CITY           SKY/WX    TMP DP  RH WIND       PRES   REMARKS
ALPENA         SUNNY     76  64  66 W5        29.99F
BEAVER ISLAND  SUNNY     74  67  78 SW9       29.96F
BELLAIRE       SUNNY     74  64  69 CALM      29.97S
CADILLAC       CLOUDY    77  69  76 S6        29.99F
CHARLEVOIX     SUNNY     74  66  75 S3        29.99F
FRANKFORT      CLOUDY    74  72  95 CALM      29.96F
GAYLORD        MOSUNNY   74  57  55 SW5       29.99F
GRAYLING       CLOUDY    74  61  65 SE3       30.00F
HARBOR SPRINGS SUNNY     73  65  77 SW3       29.97F
HOUGHTON LAKE  MOSUNNY   74  63  68 S5        30.00F
MANISTEE       CLOUDY    70  69  97 E3        29.97F
OSCODA         MOSUNNY   77  59  54 W7        29.98S
PELLSTON       SUNNY     75  63  66 CALM      29.97F
ROGERS CITY    SUNNY     75  62  64 SW8       29.98F
TRAVERSE CITY  CLOUDY    76  68  76 SW3       29.95F
$$
MIZ007>008-015-211500-
EASTERN UPPER MICHIGAN

CITY           SKY/WX    TMP DP  RH WIND       PRES   REMARKS
KINROSS        SUNNY     71  62  73 VRB3      29.96F
MACKINAC ISLAN SUNNY     70  64  81 W3        29.96F
NEWBERRY       SUNNY     71  65  81 S6        29.95F
S. S. MARIE    SUNNY     72  63  73 CALM      29.95F
MUNISING         N/A     71  66  84 CALM      29.94S
$$
MIZ004>006-011>014-085-211500-
CENTRAL UPPER MICHIGAN

CITY           SKY/WX    TMP DP  RH WIND       PRES   REMARKS
MANISTIQUE     SUNNY     71  67  87 SW3       29.95F
ESCANABA       SUNNY     74  64  71 SW6       29.96F
MENOMINEE      SUNNY     76  67  73 SW6       29.98R
SAWYER-GWINN   SUNNY     70  61  73 S5        29.97S
$$
MIZ001>003-009>011-084-211500-
WESTERN UPPER MICHIGAN

CITY           SKY/WX    TMP DP  RH WIND       PRES   REMARKS
IRON MOUNTAIN  SUNNY     74  61  63 CALM      29.97S
HOUGHTON       CLOUDY    71  57  61 N5        29.95R
COPPER HARBOR    N/A     63  54  72 CALM      29.94S
IRONWOOD       CLOUDY    65  63  93 CALM      29.99R
$$

ABBREVIATIONS USED IN REMARKS
   TC - TEMPERATURE IN CELSIUS
  WCI - WIND CHILL INDEX
   HX - HEAT INDEX
  VSB - VISIBILITY





USA.gov is the U.S. government's official web portal to all federal, state and local government web resources and services.